Temperature
20 20 20 20 19 19 19 18 18 18 18 18 18 17 17 17 17 17 17 17 16 16 16 16 16 16 16 16 15 15 15 15 15 15 15 15 15 15 15 15 15 15 15
21 20 20 19 19 19 19 18 18 18 18 18 17 17 17 17 17 17 17 16 16 16 16 16 16 15 15 15 15 15 15 15 15 15 15 15 15 15 15 15 14 14 14
21 20 20 19 19 19 19 18 18 18 18 17 17 17 17 17 17 16 16 16 16 16 16 15 15 15 15 15 15 15 15 15 15 15 14 14 14 14 14 14 14 14 14
21 20 20 20 19 19 19 18 18 18 18 17 17 17 17 17 17 16 16 16 16 16 15 15 15 15 15 15 15 15 15 15 15 14 14 14 14 14 14 14 14 14 14
20 20 20 20 19 19 18 18 18 18 17 17 17 17 16 16 16 16 16 16 16 15 15 15 15 15 15 15 15 15 15 14 14 14 14 14 14 14 14 14 14 14 14
20 20 20 19 19 19 18 18 18 18 17 17 17 17 16 16 16 16 16 15 15 15 15 15 15 15 15 15 15 14 14 14 14 14 14 14 14 14 14 13 13 13 13
20 20 19 19 19 19 18 18 18 17 17 17 17 16 16 16 16 16 16 15 15 15 15 15 15 15 15 15 14 14 14 14 14 14 14 14 14 14 13 13 13 13 13
20 20 19 19 19 18 18 18 18 17 17 17 17 16 16 16 16 16 16 15 15 15 15 15 15 15 15 15 14 14 14 14 14 14 14 14 13 13 13 13 13 13 13
19 19 19 18 18 18 17 17 17 17 17 17 16 16 16 16 16 15 15 15 15 15 15 15 15 15 15 14 14 14 14 14 14 14 13 13 13 13 13 12 12 12 12
18 18 18 18 18 18 17 17 17 17 16 16 16 16 15 15 15 15 15 15 15 15 15 15 14 14 14 14 14 14 14 14 14 14 13 13 13 13 12 12 12 12 12
18 18 18 18 17 17 17 17 17 17 16 16 16 15 15 15 15 15 15 15 15 14 14 14 14 14 14 14 14 14 14 14 14 13 13 13 13 13 12 12 12 12 12
18 18 18 17 17 17 17 16 16 16 16 16 15 15 15 15 15 15 14 14 14 14 14 14 14 14 14 14 14 13 13 13 13 13 13 13 13 13 12 12 12 12 12
17 17 17 17 17 16 16 16 16 16 15 15 15 15 15 15 15 15 14 14 14 14 14 14 13 13 13 13 13 13 13 13 13 13 12 12 12 12 12 12 12 12 12
17 17 16 16 16 16 15 15 15 15 15 15 15 15 14 14 14 14 14 14 14 14 14 13 13 13 13 13 13 13 13 12 12 12 12 12 12 12 12 12 11 11 11
16 16 16 15 15 15 15 15 15 15 15 15 15 14 14 14 14 14 14 14 14 13 13 13 13 13 13 13 12 12 12 12 12 12 12 12 12 11 11 11 11 11 11
16 15 15 15 15 15 14 14 14 14 14 14 14 14 14 14 14 13 13 13 13 13 13 13 13 13 12 12 12 12 12 12 11 11 11 11 11 11 11 11 11 11 10
15 15 15 14 14 14 14 14 14 14 14 13 13 13 13 13 13 13 13 13 13 12 12 12 12 12 12 12 11 11 11 11 11 11 11 11 10 10 10 10 10 10 10
14 14 14 14 14 14 14 14 13 13 13 13 13 13 13 13 13 13 13 13 12 12 12 12 12 11 11 11 11 11 11 11 11 10 10 10 10 10 10 10 9 9 9
14 14 14 14 14 13 13 13 13 13 13 13 13 13 13 12 12 12 12 12 12 12 11 11 11 11 11 11 10 10 10 10 10 10 10 9 9 9 9 9 9 9 9
14 14 13 13 13 13 13 13 13 13 12 12 12 12 12 12 12 12 12 11 11 11 11 11 11 11 10 10 10 10 10 10 10 9 9 9 9 9 9 8 8 8 8
13 13 13 13 13 13 13 13 12 12 12 12 12 12 12 12 12 11 11 11 11 11 10 10 10 10 10 10 10 9 9 9 9 9 8 8 8 8 8 8 8 8 8
13 13 13 13 13 12 12 12 12 12 12 12 12 12 11 11 11 11 11 11 10 10 10 10 10 9 9 9 9 9 9 8 8 8 8 8 8 8 8 7 7 7 7
12 12 12 12 12 12 12 12 12 12 11 11 11 11 11 11 11 11 10 10 10 10 9 9 9 9 9 9 8 8 8 8 8 8 8 8 7 7 7 7 7 7 7
12 12 12 12 12 12 11 11 11 11 11 11 11 11 11 11 10 10 10 10 9 9 9 9 8 8 8 8 8 8 8 7 7 7 7 7 7 7 6 6 6 6 6
12 12 12 12 11 11 11 11 11 11 11 11 11 10 10 10 10 9 9 9 9 9 8 8 8 8 8 8 7 7 7 7 7 7 6 6 6 6 6 6 6 6 5
11 11 11 11 11 11 11 11 11 10 10 10 10 10 9 9 9 9 8 8 8 8 8 8 8 7 7 7 7 7 7 6 6 6 6 6 6 5 5 5 5 5 5
Wind_Speed
7 7 6 6 5 5 5 5 4 3 3 3 3 3 3 3 3 3 3 3 2 2 2 2 2 2 2 2 2 2 2 2 3 3 2 2 1 2 2 2 3 3 3
7 6 6 5 5 5 5 4 4 3 3 3 3 3 3 3 3 4 3 3 3 2 2 2 2 2 2 2 2 2 3 3 3 3 2 1 2 2 2 2 2 2 2
6 7 6 6 6 6 5 4 4 4 4 4 4 4 4 3 3 3 3 3 3 3 3 3 3 3 3 2 3 3 3 3 3 3 2 1 1 1 1 1 2 2 2
7 7 7 7 7 6 5 5 4 4 4 4 4 4 4 4 3 3 3 3 3 3 3 3 4 4 4 4 3 3 3 3 2 3 2 2 1 1 1 1 2 2 2
7 7 7 6 5 5 5 5 5 5 5 4 4 4 4 3 3 3 3 3 3 3 2 3 4 5 6 5 3 3 3 3 2 2 2 2 2 1 2 2 2 3 3
7 7 6 6 5 5 5 5 4 4 4 4 4 4 4 4 4 5 5 3 3 3 3 3 3 4 5 5 5 6 5 4 4 3 3 4 4 3 3 2 2 2 3
6 6 6 6 6 5 5 4 5 5 4 4 4 4 4 4 5 6 6 4 4 4 3 3 3 3 3 3 3 4 4 6 7 5 5 5 5 5 4 4 4 4 4
4 4 4 5 5 4 4 4 4 4 4 4 4 4 4 4 5 6 5 4 4 4 4 4 4 4 3 3 2 3 3 4 5 5 6 6 6 5 5 5 4 3 3
4 4 4 4 4 4 4 4 4 3 3 3 3 3 4 4 5 5 5 3 4 4 4 4 4 4 5 3 3 3 4 4 4 6 6 6 6 6 5 3 2 2 3
3 3 4 4 4 4 4 4 3 3 3 3 3 3 3 4 4 6 6 4 4 4 3 3 4 4 4 3 3 4 5 5 4 3 3 4 4 5 6 6 5 4 3
3 3 3 3 4 4 3 2 2 2 3 3 2 2 2 3 4 5 6 4 4 4 3 3 3 3 4 3 4 5 7 6 4 4 3 3 3 3 4 5 6 6 5
3 3 2 2 2 2 3 2 2 3 2 2 2 2 2 2 3 4 6 6 5 4 4 4 4 4 5 4 3 5 6 4 2 3 3 4 4 4 4 5 6 7 7
3 3 2 2 2 2 3 3 2 2 2 2 2 3 3 2 3 4 5 5 6 5 4 4 5 5 4 3 4 4 3 2 2 3 4 5 4 5 4 3 4 4 5
3 2 2 2 2 1 2 2 2 2 2 2 3 3 3 3 2 2 3 3 3 4 4 4 4 4 3 3 3 3 2 3 3 4 5 5 3 3 3 3 3 2 2
3 2 2 2 2 1 1 1 2 2 3 4 3 3 3 4 4 4 3 2 3 3 2 1 1 1 2 2 2 3 3 3 3 4 4 4 4 4 4 3 3 3 3
3 2 2 1 1 1 1 1 2 1 1 2 3 3 3 4 4 3 4 5 4 2 2 1 2 3 3 3 4 4 3 4 4 4 4 4 4 4 4 4 3 4 5
3 3 2 2 2 2 2 2 0 2 2 2 1 2 2 3 3 2 2 2 2 3 2 2 3 3 4 4 4 4 4 4 4 4 4 4 4 4 4 4 4 4 5
3 3 2 2 2 2 1 1 1 1 1 2 2 2 2 2 2 2 1 2 1 1 2 3 4 4 4 4 4 4 4 4 4 4 4 5 4 4 4 5 5 6 5
3 2 2 2 1 1 1 1 1 1 0 1 2 2 2 1 1 1 1 1 2 3 3 4 4 4 4 4 4 4 4 5 5 4 4 5 4 4 5 5 5 6 6
2 3 3 2 2 1 1 1 1 0 0 1 2 2 2 1 1 1 0 1 2 3 3 4 4 4 4 4 4 4 4 4 4 4 4 5 5 4 5 6 6 5 6
2 2 3 2 2 1 1 1 0 1 1 1 2 2 1 1 2 2 2 2 2 3 4 4 4 4 4 3 3 4 4 4 4 4 5 5 5 4 5 5 5 5 5
2 2 2 2 1 1 1 0 1 1 1 1 2 2 2 1 1 2 2 2 3 3 3 3 3 3 3 4 4 4 4 4 4 4 4 5 4 4 4 4 4 5 5
3 2 2 1 1 1 1 0 1 1 1 1 2 2 1 1 1 1 2 2 2 2 2 2 3 3 3 3 3 3 3 4 4 5 5 5 5 5 4 5 6 6 5
3 3 2 1 1 1 1 1 1 1 1 1 1 1 1 1 1 1 2 2 2 2 2 2 3 4 5 4 4 4 4 5 6 5 6 6 6 5 5 6 6 6 6
2 2 2 2 2 1 1 1 1 1 1 1 1 1 1 1 2 2 2 2 3 3 3 3 3 4 5 6 5 5 6 7 7 6 6 5 6 6 6 6 6 6 6
2 2 2 2 2 2 1 1 1 1 1 1 0 1 1 1 1 2 2 3 3 3 4 4 4 6 7 6 6 7 7 7 7 7 6 5 5 5 5 5 6 6 6
Wind_Direction
196 196 193 194 192 190 197 205 208 209 198 195 200 198 201 199 183 169 179 176 180 200 199 190 207 198 194 200 196 194 202 201 231 266 262 283 257 271 276 254 255 255 256
195 190 193 186 178 186 199 203 196 196 199 197 192 192 197 196 184 174 179 180 189 204 209 200 221 211 209 218 208 216 217 211 213 251 270 279 266 273 270 267 274 272 261
183 185 186 184 183 192 199 201 195 195 202 200 190 196 200 195 185 182 182 189 199 211 212 208 221 208 220 221 219 229 230 226 216 227 254 257 267 281 298 304 305 297 283
179 183 190 193 194 197 196 195 197 197 197 197 193 193 195 196 193 190 187 201 209 221 224 222 224 217 221 223 222 231 229 221 218 224 245 255 260 271 252 275 295 288 282
177 187 197 194 189 188 189 193 198 199 203 197 193 192 195 197 205 197 196 204 209 225 235 238 237 229 224 223 222 220 212 212 216 227 241 252 259 249 247 247 268 286 283
177 189 186 176 180 188 188 189 193 198 201 197 203 202 204 213 202 196 191 200 203 212 231 249 249 240 240 236 227 216 205 207 214 218 231 242 248 242 240 243 255 270 273
181 184 177 174 182 190 184 181 194 202 201 203 208 208 215 220 207 204 202 197 205 220 223 236 258 258 252 249 241 233 236 227 212 209 225 236 238 230 220 233 236 242 254
174 174 170 168 178 179 174 186 196 198 199 208 211 214 222 229 213 209 206 202 216 228 228 230 239 258 259 246 253 265 266 254 235 226 230 236 237 231 219 222 231 247 273
171 176 176 169 166 168 182 195 192 187 199 213 216 215 223 240 223 211 199 202 224 237 239 236 237 252 258 238 233 259 278 281 258 239 239 243 238 226 205 193 208 231 271
179 180 169 162 164 178 191 192 188 187 202 210 222 223 227 240 232 211 192 200 224 242 250 247 240 250 264 239 222 237 258 269 276 276 264 262 250 235 211 208 212 222 246
170 160 156 162 170 176 178 174 169 181 192 203 214 239 241 245 242 220 205 209 217 229 245 256 253 254 259 254 227 234 247 255 262 258 262 266 265 251 237 226 218 217 229
133 136 144 150 153 153 147 147 152 156 165 193 216 258 274 269 254 239 220 219 220 224 239 247 253 257 257 257 243 252 258 252 247 251 258 261 262 261 258 247 236 230 234
123 132 140 131 129 140 153 163 165 166 178 206 220 251 273 277 263 250 242 234 225 226 244 251 261 267 266 263 262 263 246 237 240 249 257 260 259 260 264 263 253 247 254
130 131 123 122 126 137 154 168 176 189 199 212 226 246 264 273 269 261 253 245 238 237 253 264 264 265 256 265 278 265 242 237 236 250 257 261 263 264 260 252 250 254 265
124 123 119 131 147 159 160 177 195 216 213 209 226 228 237 262 265 237 222 237 237 238 235 258 274 282 286 285 278 272 259 252 249 255 260 266 265 260 261 257 250 241 240
119 120 126 136 148 153 150 39 24 257 262 216 230 231 245 251 271 256 239 239 234 195 166 244 264 269 268 270 271 269 259 256 256 258 260 262 265 266 269 266 255 253 257
133 135 133 136 144 148 150 151 34 5 18 18 338 283 259 274 281 265 243 235 226 160 186 246 256 262 268 271 268 264 262 262 257 257 260 260 261 264 268 272 270 266 265
128 132 134 147 154 157 160 162 167 166 343 340 341 334 311 292 281 269 213 112 100 174 236 251 260 263 263 263 267 272 277 277 266 261 261 261 259 261 266 267 267 268 271
132 133 130 128 134 145 146 144 147 154 247 313 329 331 325 309 314 337 118 153 230 248 252 257 261 265 267 268 268 269 272 275 273 269 268 268 266 265 265 267 267 266 264
134 126 120 122 116 109 114 127 137 139 300 302 300 305 328 10 354 338 285 249 264 273 274 272 273 273 273 272 272 273 275 276 279 275 275 274 270 264 263 266 268 270 269
132 128 118 113 118 122 117 132 173 192 244 277 286 294 274 261 276 280 283 277 270 274 279 281 282 284 281 279 278 280 281 281 279 278 277 277 278 275 268 264 265 268 271
131 128 123 125 125 121 127 184 228 236 251 273 304 315 281 244 262 270 275 282 281 281 280 279 283 287 288 287 286 284 285 287 288 285 281 279 279 278 276 274 277 280 279
132 131 121 122 126 124 119 201 232 239 274 295 301 307 321 312 296 292 295 300 307 309 311 305 299 303 302 293 291 288 286 288 287 285 283 284 283 280 276 272 272 278 280
145 146 148 151 144 152 185 234 249 249 258 275 300 317 325 328 324 314 308 314 320 320 318 319 314 314 314 312 311 304 300 303 305 293 286 284 285 285 281 275 268 266 268
151 155 163 168 171 186 208 244 276 270 262 272 295 315 332 345 344 332 328 328 323 322 326 327 322 317 312 309 308 311 316 317 313 308 295 284 281 281 278 276 274 271 270
160 166 175 179 181 187 194 213 239 246 259 284 343 12 359 348 341 335 331 330 328 324 322 322 321 317 312 309 305 311 319 319 316 312 298 283 281 282 283 278 283 278 276
Height
1519 1521 1523 1524 1526 1527 1528 1529 1530 1531 1532 1532 1532 1532 1532 1533 1533 1533 1534 1534 1535 1535 1535 1536 1536 1536 1537 1537 1537 1537 1537 1537 1536 1535 1535 1535 1534 1534 1533 1533 1532 1531 1531
1516 1518 1520 1521 1523 1524 1525 1527 1528 1528 1529 1530 1530 1530 1530 1530 1531 1531 1532 1532 1533 1533 1533 1534 1534 1534 1534 1535 1535 1535 1535 1534 1534 1533 1532 1532 1532 1531 1531 1530 1530 1529 1528
1513 1515 1517 1518 1520 1521 1522 1524 1524 1525 1526 1527 1527 1527 1527 1528 1528 1529 1530 1530 1530 1531 1531 1531 1532 1532 1532 1532 1532 1532 1532 1531 1531 1531 1530 1529 1529 1529 1528 1528 1527 1526 1526
1510 1512 1513 1515 1516 1518 1519 1521 1522 1522 1523 1524 1525 1525 1525 1525 1526 1527 1527 1527 1528 1528 1529 1529 1529 1529 1529 1529 1529 1529 1528 1528 1528 1528 1527 1526 1526 1525 1525 1524 1524 1523 1523
1507 1509 1510 1512 1514 1515 1516 1517 1519 1520 1520 1521 1522 1522 1522 1523 1523 1524 1524 1525 1525 1525 1526 1526 1527 1527 1527 1527 1527 1526 1526 1526 1525 1525 1524 1523 1523 1522 1522 1521 1520 1519 1519
1503 1505 1507 1509 1511 1512 1513 1514 1515 1516 1517 1518 1519 1519 1519 1520 1521 1521 1522 1522 1522 1522 1523 1523 1524 1524 1524 1524 1524 1524 1523 1523 1522 1522 1521 1520 1520 1519 1519 1518 1517 1516 1515
1501 1503 1504 1506 1507 1509 1509 1511 1512 1513 1514 1515 1516 1516 1516 1517 1518 1519 1519 1519 1519 1520 1520 1520 1520 1521 1521 1521 1521 1520 1520 1520 1519 1519 1518 1517 1517 1516 1515 1514 1513 1513 1512
1499 1500 1502 1503 1504 1505 1506 1507 1508 1510 1511 1511 1512 1513 1513 1514 1515 1516 1516 1516 1516 1516 1517 1517 1517 1517 1517 1517 1517 1517 1517 1516 1516 1515 1515 1514 1514 1513 1512 1511 1510 1509 1508
1496 1497 1499 1500 1502 1503 1504 1504 1505 1507 1508 1508 1509 1509 1510 1510 1512 1512 1513 1513 1513 1513 1513 1514 1514 1514 1514 1514 1514 1513 1513 1513 1512 1512 1511 1510 1510 1509 1508 1507 1506 1505 1504
1494 1495 1497 1498 1499 1500 1501 1502 1503 1505 1505 1506 1507 1507 1508 1508 1509 1509 1509 1509 1509 1509 1510 1510 1510 1511 1511 1510 1510 1510 1509 1509 1509 1508 1507 1507 1506 1505 1504 1504 1503 1502 1500
1492 1493 1495 1496 1497 1498 1499 1500 1501 1502 1503 1504 1504 1505 1505 1505 1506 1506 1506 1505 1505 1505 1506 1506 1506 1507 1507 1506 1506 1505 1505 1505 1504 1504 1503 1503 1502 1501 1500 1500 1499 1498 1497
1490 1492 1493 1494 1495 1496 1497 1498 1499 1500 1500 1500 1501 1502 1502 1503 1503 1503 1502 1502 1502 1502 1502 1503 1503 1503 1503 1502 1502 1502 1501 1501 1500 1500 1499 1498 1497 1497 1496 1496 1495 1494 1494
1488 1489 1490 1491 1493 1494 1495 1496 1497 1497 1497 1498 1499 1499 1500 1500 1500 1499 1499 1499 1499 1499 1499 1499 1499 1499 1499 1498 1498 1498 1497 1496 1496 1495 1494 1494 1493 1493 1492 1491 1491 1490 1489
1486 1487 1488 1489 1491 1492 1493 1494 1494 1495 1495 1496 1496 1497 1497 1497 1497 1497 1497 1496 1496 1496 1496 1496 1495 1495 1494 1494 1494 1493 1493 1492 1491 1490 1490 1489 1489 1488 1487 1486 1486 1485 1484
1484 1485 1487 1488 1489 1490 1491 1492 1493 1493 1494 1494 1494 1494 1494 1494 1494 1494 1493 1493 1493 1493 1492 1492 1491 1490 1489 1489 1489 1489 1488 1487 1486 1485 1485 1484 1483 1483 1482 1482 1481 1480 1479
1483 1484 1485 1486 1488 1489 1489 1490 1491 1492 1492 1492 1492 1492 1492 1492 1491 1491 1490 1490 1490 1490 1489 1488 1487 1486 1486 1485 1485 1484 1484 1483 1482 1481 1479 1479 1478 1477 1477 1476 1475 1475 1474
1482 1484 1485 1485 1486 1487 1487 1488 1488 1489 1489 1489 1489 1489 1489 1489 1489 1488 1487 1487 1487 1487 1486 1485 1484 1483 1483 1482 1481 1480 1479 1478 1477 1476 1475 1474 1473 1472 1471 1470 1470 1469 1468
1482 1483 1484 1485 1485 1485 1486 1486 1487 1487 1487 1487 1487 1487 1487 1486 1486 1485 1485 1484 1484 1483 1482 1482 1481 1480 1479 1478 1477 1476 1475 1474 1472 1471 1470 1469 1468 1467 1466 1465 1464 1463 1462
1480 1481 1482 1483 1484 1484 1484 1484 1485 1485 1485 1485 1485 1485 1484 1484 1483 1483 1482 1481 1480 1480 1479 1478 1478 1477 1476 1474 1473 1471 1470 1469 1467 1466 1465 1464 1462 1461 1460 1459 1459 1458 1457
1478 1479 1480 1481 1482 1482 1482 1483 1483 1483 1483 1483 1482 1482 1482 1481 1481 1480 1479 1478 1478 1477 1476 1475 1474 1473 1472 1470 1469 1467 1465 1464 1463 1461 1460 1459 1457 1456 1455 1454 1453 1452 1451
1477 1477 1478 1479 1479 1480 1481 1481 1481 1482 1481 1481 1481 1480 1480 1479 1478 1477 1477 1476 1475 1474 1473 1472 1470 1469 1467 1466 1464 1463 1461 1459 1458 1456 1455 1453 1452 1451 1449 1448 1447 1446 1445
1475 1476 1476 1477 1478 1478 1479 1480 1480 1480 1479 1479 1479 1478 1477 1476 1476 1475 1474 1473 1472 1471 1470 1468 1467 1465 1464 1462 1460 1458 1456 1454 1453 1451 1450 1448 1447 1446 1444 1443 1442 1441 1440
1473 1474 1475 1476 1476 1477 1477 1478 1478 1478 1478 1477 1477 1476 1475 1474 1474 1473 1472 1471 1469 1468 1467 1465 1463 1462 1460 1458 1456 1454 1452 1450 1448 1447 1445 1443 1442 1440 1439 1438 1437 1436 1435
1472 1473 1473 1474 1474 1475 1475 1476 1476 1476 1475 1475 1474 1474 1473 1472 1471 1470 1469 1468 1466 1465 1463 1462 1460 1458 1456 1454 1452 1450 1448 1446 1444 1442 1440 1438 1437 1435 1434 1432 1431 1431 1430
1470 1471 1472 1472 1473 1473 1473 1473 1473 1473 1473 1473 1472 1471 1470 1469 1468 1467 1466 1464 1463 1461 1459 1458 1456 1454 1452 1450 1447 1445 1443 1441 1439 1437 1435 1433 1431 1430 1428 1427 1426 1425 1425
1469 1469 1470 1470 1471 1471 1471 1471 1471 1471 1471 1470 1469 1468 1468 1466 1465 1464 1462 1460 1459 1457 1455 1453 1451 1449 1447 1445 1443 1440 1438 1436 1434 1432 1430 1428 1426 1425 1423 1422 1421 1420 1419